Погода в Патиале

Индия     30°19′33″N   76°24′04″E
В апреле 2022 года жителям России запретили посещать сайт meteo.paraplan.net по решению Генеральной прокуратуры. Аудитория сайта уменьшилась в 10 раз. Владельцы сайта не видят смысла в поддержке погодного сервера в таких условиях. Сайт будет закрыт в октябре.
темп.,
°C
ветер,
м/с
пор.,
м/с
влажн.,
%
обл.,
%
осадки,
мм/ч
давл.,
гПа
погр.,
м
4 октября, вт
вт423:30+24ссз22600 0.0 100714
02:30+24ссз22600 0.0 100717
05:30+23ссв22630 0.0 100812
08:30+26с23570 0.0 1010187
11:30+32с23420 0.0 10101008
14:30+34с33340 0.0 10071784
17:30+31с22470 0.0 100723
20:30+27всв11600 0.0 100814
5 октября, ср
ср523:30+26вюв11680 0.0 100911
02:30+24вюв22760 0.0 100827
05:30+23вюв34870 0.0 100880
08:30+26юв45800 0.0 1010371
11:30+31юв33590 0.0 10091113
14:30+33юв11440 0.0 10061872
17:30+31вюв22500 0.0 100616
20:30+27вюв22670 0.0 100831
6 октября, чт
чт623:30+26вюв33720 0.0 100862
02:30+24вюв35810 0.0 1008108
05:30+23вюв37840 0.0 1008178
08:30+26юв45770 0.0 1009387
11:30+30юв32574 0.0 10091271
14:30+33вюв12390 0.0 10062223
17:30+30вюв22470 0.0 100524
20:30+26вюв34600 0.0 100869
7 октября, пт
пт723:30+25вюв49730 0.0 1009285
02:30+23вюв49860 0.0 1009377
05:30+21вюв36930 0.0 1009200
08:30+24юв45808 0.0 1011447
11:30+29юв336010 0.0 10101124
14:30+31вюв214743 0.0 10072008
17:30+27юв586639 0.0 1007242
20:30+25ююв5973100 0.0 1010385
8 октября, сб
сб823:30+24юв48834 0.0 1011433
02:30+21вюв26954 0.0 1010239
05:30+21юв22960 0.0 101035
08:30+24ю11800 0.0 1012316
11:30+29зюз125747 0.0 10111407
14:30+26ююв5573100 0.0 1008369
17:30+24ююв3582100 0.0 1009207
20:30+23ююв358483 0.0 1010252